Content
SEND FEEDBACK

Daily
Averages
Monthly
Summary
United States of America

FONTANA DAM, NORTH CAROLINA


Home > North America > United States > North Carolina
Elevation: 1506 feet     Latitude: 35 27N     Longitude: 083 56W

WEATHER
 
SELECT A DAY
Number of Records: 300,812;   Date Range: 5/18/01 - 10/19/14
 
SHARE

PRINT THIS DATA

[ ← Previous Day ]
WEATHER ALMANAC - SEPTEMBER 25, 2013
[ Next Day → ]
[ °C ]   °F
Weather ElementAverageHighLow
Temperature63 °F65.3 °F (4:55 pm)61.7 °F (6:15 am)
Dewpoint62.2 °F63.7 °F (3:15 pm)61.3 °F (9:15 pm)
Humidity97.4 %100 % (2:35 am)92 % (6:15 pm)
Barometer29.91 in29.94 in (12:35 am)29.88 in (3:35 pm)
Wind Speed0.6 mph4.6 mph (11:35 am)
Weather ElementAverage
Visibility6.2 mi
Wind DirectionNNE (38.6 °)

Weather ElementTotal
Precipitation2.51 in
Heating Degree Days1.5 (Base 65)
Growing Degree Days13.5 (Base 50)
Averaged from 66 records on September 25, 2013
WEATHER CONDITIONS BREAKOUT
WIND DIRECTION BREAKOUT
WEATHER BY HOUR - SEPTEMBER 25, 2013
[ °C ]   °F
Local TimeTemperatureDewpointHumidityBarometerVisibilityWind DirectionWind SpeedGust SpeedPrecipitationEventsConditions
12:35 AM63.5 °F62.6 °F97 %29.94 in7.0 miCalmOvercast
12:55 AM63.0 °F62.1 °F97 %29.94 in7.0 miCalmOvercast
1:15 AM63.5 °F62.2 °F96 %29.93 in7.0 miCalmRainRain
1:35 AM63.3 °F62.6 °F97 %29.93 in7.0 miCalmLight Drizzle
1:55 AM63.1 °F62.6 °F98 %29.93 in5.0 miCalm0.01 inRainRain
2:15 AM62.8 °F62.6 °F99 %29.93 in4.0 miCalm0.01 inRainRain
2:35 AM62.6 °F62.6 °F100 %29.93 in3.0 miCalm0.04 inRainRain
2:55 AM62.6 °F62.2 °F99 %29.93 in2.5 miWest (270°)3.5 mph0.12 inRainRain
3:35 AM62.1 °F61.9 °F99 %29.91 in2.0 miCalm0.44 inRainHeavy Rain
3:55 AM61.9 °F61.7 °F99 %29.91 in2.0 miCalm0.57 inRainHeavy Rain
4:15 AM61.9 °F61.7 °F99 %29.90 in2.5 miCalm0.07 inRainRain
4:35 AM61.9 °F61.7 °F99 %29.90 in2.0 miCalm0.16 inRainRain
4:55 AM61.9 °F61.7 °F99 %29.90 in3.0 miCalm0.21 inRainHeavy Rain
5:35 AM61.9 °F61.7 °F99 %29.90 in4.0 miCalm0.04 inDrizzle
5:55 AM61.9 °F61.7 °F99 %29.90 in3.0 miCalm0.06 inRainLight Rain
6:15 AM61.7 °F61.7 °F100 %29.90 in3.0 miCalm0.04 inRainRain
6:35 AM61.7 °F61.7 °F100 %29.90 in4.0 miCalm0.07 inRainRain
6:55 AM61.7 °F61.7 °F100 %29.90 in4.0 miCalm0.09 inRainHeavy Rain
7:15 AM61.7 °F61.7 °F100 %29.90 in4.0 miCalm0.01 inDrizzle
7:35 AM61.9 °F61.7 °F99 %29.90 in4.0 miCalm0.01 inOvercast
7:55 AM61.9 °F61.9 °F100 %29.91 in3.0 miCalm0.01 inRainRain
8:15 AM61.9 °F61.9 °F100 %29.91 in2.0 miCalmDrizzle
8:35 AM62.1 °F61.9 °F99 %29.91 in4.0 miCalm0.01 inDrizzle
8:55 AM62.1 °F61.9 °F99 %29.91 in4.0 miCalm0.02 inDrizzle
9:15 AM62.2 °F62.1 °F99 %29.92 in4.0 miCalm0.02 inRainRain
9:35 AM62.2 °F62.1 °F99 %29.92 in4.0 miCalm0.03 inDrizzle
9:55 AM62.6 °F62.1 °F98 %29.92 in4.0 miCalm0.03 inRainRain
10:15 AM62.8 °F62.1 °F97 %29.92 in10.0 miCalm0.01 inOvercast
10:35 AM63.1 °F62.4 °F97 %29.92 in10.0 miCalm0.01 inOvercast
10:55 AM63.5 °F62.4 °F96 %29.92 in10.0 miCalm0.01 inRainRain
11:15 AM63.1 °F62.6 °F98 %29.93 in3.0 miWest (260°)3.5 mph0.05 inRainHeavy Rain
11:35 AM63.1 °F62.8 °F99 %29.93 in4.0 miWest (260°)4.6 mph0.13 inRainLight Rain
11:55 AM63.1 °F62.6 °F98 %29.93 in3.0 miWSW (250°)3.5 mph0.16 inRainRain
12:15 PM63.1 °F62.2 °F97 %29.93 in5.0 miWSW (250°)4.6 mph0.01 inRainRain
12:35 PM63.1 °F62.1 °F96 %29.93 in7.0 miCalm0.01 inLight Drizzle
12:55 PM63.7 °F62.6 °F96 %29.92 in7.0 miCalm0.02 inLight Drizzle
1:15 PM64.2 °F62.6 °F94 %29.91 in7.0 miCalmOvercast
1:35 PM64.6 °F62.6 °F93 %29.91 in10.0 miCalmOvercast
2:15 PM64.4 °F62.8 °F94 %29.89 in7.0 miCalmOvercast
2:55 PM64.4 °F63.5 °F97 %29.89 in7.0 miWSW (240°)3.5 mph0.02 inRainRain
3:15 PM64.6 °F63.7 °F97 %29.89 in7.0 miWSW (240°)3.5 mphOvercast
3:35 PM64.4 °F63.1 °F96 %29.88 in10.0 miCalmOvercast
3:55 PM64.6 °F62.4 °F93 %29.88 in10.0 miCalmOvercast
4:15 PM64.9 °F63.0 °F93 %29.88 in10.0 miCalmOvercast
4:55 PM65.3 °F63.3 °F93 %29.88 in10.0 miCalmOvercast
5:15 PM64.8 °F63.3 °F95 %29.88 in7.0 miCalmRainRain
5:35 PM64.8 °F63.0 °F94 %29.88 in10.0 miCalmOvercast
5:55 PM64.8 °F62.6 °F93 %29.89 in10.0 miWSW (250°)4.6 mphOvercast
6:15 PM64.8 °F62.4 °F92 %29.88 in10.0 miWSW (250°)3.5 mphOvercast
6:35 PM64.4 °F62.6 °F94 %29.89 in10.0 miWest (280°)3.5 mphOvercast
6:55 PM63.9 °F62.6 °F96 %29.89 in10.0 miCalmOvercast
7:15 PM63.7 °F62.2 °F95 %29.89 in7.0 miCalmOvercast
7:35 PM63.5 °F62.6 °F97 %29.90 in10.0 miCalmOvercast
7:55 PM63.5 °F62.6 °F97 %29.90 in10.0 miCalmOvercast
8:15 PM63.0 °F62.1 °F97 %29.90 in7.0 miCalmOvercast
8:35 PM62.6 °F61.7 °F97 %29.91 in5.0 miCalmDrizzle
8:55 PM62.4 °F61.7 °F97 %29.91 in5.0 miCalm0.01 inDrizzle
9:15 PM62.2 °F61.3 °F97 %29.91 in7.0 miCalmRainRain
9:35 PM62.2 °F61.7 °F98 %29.92 in5.0 miCalmLight Drizzle
9:55 PM62.2 °F61.9 °F99 %29.93 in7.0 miCalmRainRain
10:15 PM62.1 °F61.7 °F99 %29.92 in10.0 miCalmOvercast
10:35 PM62.1 °F61.7 °F99 %29.93 in4.0 miCalmDrizzle
10:55 PM61.9 °F61.7 °F99 %29.93 in5.0 miCalmOvercast
11:15 PM61.9 °F61.7 °F99 %29.93 in7.0 miCalmOvercast
11:35 PM61.7 °F61.7 °F100 %29.93 in10.0 miCalmOvercast
11:55 PM61.7 °F61.3 °F99 %29.93 in10.0 miCalmOvercast
Hourly data recorded from KRHP, located miles away from Fontana Dam, North Carolina







STORIES FROM OUR PARTNERS